Weather History for Blue Canyon, CA

Change the Weather History Date:

Monday, November 26, 2012

  Actual Average Record
Temperature  
Mean Temperature 50 °F -  
Max Temperature 55 °F 48 °F 68 °F (1959)
Min Temperature 46 °F 33 °F 18 °F (1948)
Degree Days  
Heating Degree Days 14    
Moisture  
Dew Point 22 °F    
Average Humidity 33    
Maximum Humidity 46    
Minimum Humidity 24    
Precipitation  
Precipitation 0.00 in - - ()
Sea Level Pressure  
Sea Level Pressure 30.00 in    
Wind  
Wind Speed 5 mph (SE)    
Max Wind Speed 12 mph    
Max Gust Speed 16 mph    
Visibility 10 miles    
Events      
Averages and records for this station are not official NWS values.
T = Trace of Precipitation, MM = Missing Value Source: NWS Daily Summary

Daily Weather History Graph

Daily Weather History Graph

Search for Another Location

Airport:

Trip Planner

Search our weather history database for the weather conditions in past years. The results will help you decide how hot, cold, wet, or windy it might be!

Date:

Astronomy

Nov. 26, 2012 Rise Set
Actual Time 6:58 AM PST 4:41 PM PST
Civil Twilight 6:29 AM PST 5:10 PM PST
Nautical Twilight 5:56 AM PST 5:43 PM PST
Astronomical Twilight 5:24 AM PST 6:16 PM PST
Moon 3:36 PM PST (11/26) 5:14 AM PST (11/26)
Length of Visible Light 10h 41m
Length of Day
9h 42m
Waxing Gibbous, 97% of the Moon is Illuminated
Nov 26
Waxing Gibbous
Nov 28
Full
Dec 6
Last Quarter
Dec 13
New
Dec 19
First Quarter

Hourly Weather History & Observations

Time (PST) Temp. Dew Point Humidity Pressure Visibility Wind Dir Wind Speed Gust Speed Precip Events Conditions
12:52 AM 50.0 °F 16.0 °F 26% 29.92 in 10.0 mi East 3.5 mph - N/A   Clear
1:52 AM 51.1 °F 15.1 °F 24% 29.93 in 10.0 mi Calm Calm - N/A   Clear
2:52 AM 48.9 °F 18.0 °F 29% 29.94 in 10.0 mi SE 4.6 mph - N/A   Clear
3:52 AM 48.0 °F 18.0 °F 30% 29.96 in 10.0 mi SE 3.5 mph - N/A   Clear
4:52 AM 46.9 °F 21.0 °F 36% 29.98 in 10.0 mi SE 4.6 mph - N/A   Clear
5:52 AM 46.9 °F 19.0 °F 33% 30.00 in 10.0 mi ESE 3.5 mph - N/A   Clear
6:52 AM 46.9 °F 19.0 °F 33% 30.01 in 10.0 mi ESE 3.5 mph - N/A   Clear
7:52 AM 48.9 °F 21.9 °F 35% 30.01 in 10.0 mi Calm Calm - N/A   Clear
8:52 AM 51.1 °F 21.9 °F 32% 30.00 in 10.0 mi Variable 3.5 mph - N/A   Clear
9:52 AM 54.0 °F 21.0 °F 28% 30.01 in 10.0 mi SSE 5.8 mph - N/A   Clear
10:52 AM 54.0 °F 21.9 °F 29% 30.01 in 10.0 mi SSE 8.1 mph - N/A   Clear
11:52 AM 55.0 °F 21.9 °F 28% 30.00 in 10.0 mi South 8.1 mph - N/A   Clear
12:52 PM 55.0 °F 21.9 °F 28% 29.99 in 10.0 mi South 11.5 mph 16.1 mph N/A   Clear
1:52 PM 55.0 °F 24.1 °F 30% 29.98 in 10.0 mi South 11.5 mph - N/A   Clear
2:52 PM 55.0 °F 25.0 °F 31% 29.99 in 10.0 mi SSE 6.9 mph - N/A   Clear
3:52 PM 53.1 °F 28.0 °F 38% 30.00 in 10.0 mi SSE 6.9 mph - N/A   Clear
4:52 PM 50.0 °F 30.0 °F 46% 30.02 in 10.0 mi SE 5.8 mph - N/A   Clear
5:52 PM 50.0 °F 26.1 °F 39% 30.03 in 10.0 mi SSE 5.8 mph - N/A   Clear
6:52 PM 48.9 °F 25.0 °F 39% 30.05 in 10.0 mi SE 3.5 mph - N/A   Clear
7:52 PM 48.9 °F 23.0 °F 36% 30.05 in 10.0 mi SE 6.9 mph - N/A   Clear
8:52 PM 48.9 °F 23.0 °F 36% 30.05 in 10.0 mi SE 5.8 mph - N/A   Clear
9:52 PM 48.9 °F 21.0 °F 33% 30.05 in 10.0 mi SE 4.6 mph - N/A   Clear
10:52 PM 50.0 °F 19.9 °F 31% 30.04 in 10.0 mi SE 6.9 mph 16.1 mph N/A   Clear
11:52 PM 48.9 °F 19.9 °F 32% 30.05 in 10.0 mi SSE 6.9 mph - N/A   Clear